Terminal Aerodrome Forecast
Issued by NWS Omaha/Valley, NE

Home | Current Version | Previous Version | Text Only | Print | Product List | Glossary Off
Versions: 1 2 3 4 5 6 7 8 9 10 11 12 13 14 15 16 17 18 19 20 21 22 23 24 25 26 27 28 29 30 31 32 33 34 35 36 37 38 39 40 41 42 43 44 45 46 47 48

000
FTUS43 KOAX 222331
TAFOFK
TAF
KOFK 222331Z 2300/2324 14017G24KT P6SM BKN070
     FM230900 16011KT P6SM OVC020
     FM231400 15014KT 6SM -RA BR OVC008
     FM231800 16015G23KT P6SM BKN015=

USA.gov is the U.S. government's official web portal to all federal, state and local government web resources and services.